[[{"header":{"parameterUnit":"m.s-1","parameterCategory":1,"la1":30.2991,"la2":30.254,"lo1":-89.0895,"lo2":-89.0444,"dy":0.0017,"dx":0.0017,"nx":28,"ny":28,"refTime":"2024-06-23T09:00:00:Z","depth":0,"parameterNumber":2,"parameterNumberName":"U-component_of_WINDS"},"data":[0,0,0,0,0,0,0,0,0,0,0,0,0,0,0,0,0,0,0,0,0,0,0,0,0,0,0,0,0,0,0,0,0,0,0,0,0,0,0,0,0,0,0,0,0,0,0,0,0,0,0,0,0,0,0,0,0,0,0.6423,0.6424,0,0.6552,0.6553,0.6555,0.6593,0.6592,0.6592,0.6591,0.6727,0.6731,0.6735,0,0,0,0,0,0,0,0,0,0,0,0,0,0.6212,0.6216,0.6423,0.6424,0.6426,0.6551,0.6553,0.6555,0.6593,0.6592,0.6592,0.6591,0.6725,0.673,0.6735,0,0,0,0,0,0,0,0,0,0,0,0,0,0.6318,0.6217,0.6422,0.646,0.6465,0.6551,0.6553,0.6555,0.6593,0.6592,0.6591,0.659,0.6724,0.673,0.6736,0.6795,0,0,0.6755,0.6758,0,0,0,0,0,0,0,0,0.6312,0.6326,0.6453,0.6458,0.6463,0.6555,0.6529,0.6636,0.6594,0.6545,0.6591,0.659,0.6671,0.6681,0.6708,0.6802,0.6807,0.6756,0.676,0.6763,0.6764,0,0,0,0,0,0,0,0.6305,0.6321,0.6474,0.6455,0.6461,0.6471,0.6485,0.6549,0.6612,0.6549,0.6552,0.6566,0.6673,0.6702,0.6711,0.6809,0.6756,0.6761,0.6765,0.6768,0.6957,0.6958,0,0,0,0,0,0,0.6291,0.6314,0.647,0.6478,0.6384,0.6476,0.6492,0.6527,0.6611,0.6623,0.6567,0.6568,0.6691,0.6704,0.6716,0.679,0.6762,0.6768,0.6772,0.6956,0.6957,0.6959,0,0,0,0,0,0,0.6286,0.6304,0.6465,0.6397,0.6418,0.648,0.652,0.653,0.6558,0.6625,0.6637,0.6584,0.6691,0.6707,0.6775,0.6796,0.6771,0.6777,0.6954,0.6956,0.6958,0.6939,0,0,0,0,0,0,0.628,0.6302,0.6325,0.6397,0.6422,0.652,0.6521,0.6533,0.6568,0.657,0.6644,0.6656,0.6691,0.6765,0.6781,0.6804,0.6782,0.6953,0.6955,0.6957,0.6938,0.694,0.6942,0,0,0,0,0,0.6272,0.6316,0.6326,0.6345,0.6451,0.6521,0.6535,0.6575,0.657,0.6594,0.6636,0.6653,0.679,0.6772,0.679,0.6815,0.6952,0.6954,0.6957,0.6937,0.694,0.6942,0,0,0,0,0,0,0.6246,0.6326,0.6338,0.6406,0.6456,0.6528,0.6559,0.6576,0.663,0.663,0.6677,0.6693,0.6757,0.6793,0.6771,0.6876,0.6872,0.6878,0.685,0.6853,0.6855,0.6845,0.6787,0,0,0,0,0,0.6248,0.6297,0.6365,0.6418,0.6443,0.6496,0.6528,0.6554,0.6608,0.663,0.6678,0.6731,0.6786,0.6822,0.6876,0.6943,0.696,0.697,0.6971,0.6972,0.6978,0.7015,0.702,0.6968,0.6968,0.6967,0,0,0.6253,0.6302,0.6331,0.6414,0.6456,0.6507,0.6514,0.6568,0.6606,0.6639,0.6705,0.6742,0.6804,0.6871,0.6904,0.6903,0.6995,0.6976,0.6976,0.6981,0.7018,0.7023,0.7027,0.6969,0.6969,0.6969,0,0,0.6287,0.633,0.6379,0.642,0.6483,0.6518,0.6529,0.6598,0.6623,0.669,0.6715,0.6762,0.6856,0.6899,0.6933,0.6982,0.6999,0.6998,0.7008,0.7044,0.7048,0.7052,0.7069,0.7074,0.7003,0.7003,0.7003,0,0.6286,0.6363,0.6402,0.6454,0.6489,0.652,0.657,0.6608,0.6686,0.671,0.6708,0.6826,0.687,0.6947,0.6959,0.6986,0.7,0.6991,0.7044,0.7048,0.7052,0.7069,0.7075,0.7003,0.7003,0.7003,0.7003,0,0.6357,0.641,0.6442,0.6514,0.6554,0.6604,0.6651,0.6687,0.6708,0.6744,0.6811,0.6865,0.693,0.695,0.6973,0.703,0.7028,0.7034,0.7031,0.7056,0.7073,0.7079,0.7002,0.7002,0.7002,0.7002,0,0,0.638,0.6472,0.6484,0.6516,0.6587,0.6629,0.6681,0.6743,0.6772,0.6825,0.6869,0.6947,0.6953,0.6991,0.7019,0.705,0.7085,0.7053,0.7055,0.7057,0.7151,0.7145,0.7152,0.7096,0.7098,0.7099,0.7145,0,0.6424,0.6516,0.6552,0.6628,0.6677,0.6706,0.6751,0.6799,0.6833,0.688,0.6918,0.6972,0.6976,0.6999,0.7032,0.7074,0.7104,0.7071,0.7139,0.7141,0.7122,0.7161,0.7156,0.7197,0.7152,0.7153,0.7154,0,0.6487,0.6538,0.6618,0.6682,0.6704,0.6743,0.6803,0.6847,0.6903,0.6925,0.6967,0.6992,0.7048,0.704,0.7117,0.7094,0.7123,0.7148,0.7151,0.7159,0.7149,0.717,0.7212,0.7218,0.7165,0.7164,0.7163,0,0.6495,0.6584,0.6643,0.6671,0.6746,0.6773,0.6807,0.6861,0.6896,0.6948,0.6971,0.7029,0.7061,0.7106,0.7146,0.7137,0.7219,0.7215,0.724,0.7239,0.7256,0.7255,0.7303,0.7275,0.7275,0.7275,0.7275,0,0.654,0.6588,0.6648,0.6684,0.6738,0.6779,0.6832,0.6867,0.6915,0.6959,0.6988,0.7029,0.7079,0.7127,0.7158,0.7217,0.7232,0.7251,0.7259,0.7249,0.7246,0.7269,0.7267,0.7277,0.7276,0.7276,0.7276,0,0.6558,0.66,0.6667,0.6732,0.675,0.6787,0.6843,0.688,0.6914,0.697,0.6985,0.704,0.7097,0.7141,0.7216,0.7237,0.7299,0.7308,0.728,0.7284,0.7305,0.7303,0.737,0.7381,0.7346,0.7346,0.7346,0,0.6584,0.6621,0.669,0.6721,0.6753,0.6803,0.6838,0.688,0.6915,0.698,0.7009,0.7067,0.7117,0.7206,0.7253,0.731,0.732,0.734,0.7329,0.7317,0.732,0.7317,0.7321,0.7342,0.7342,0.7342,0.7342,0,0.6625,0.6644,0.6693,0.6749,0.6789,0.6836,0.6883,0.6906,0.6957,0.6995,0.7053,0.7091,0.7166,0.7224,0.7285,0.732,0.7339,0.7345,0.7353,0.7343,0.7325,0.7335,0.7283,0.7343,0.7343,0.7343,0.7343,0.7343,0.6648,0.6682,0.6735,0.6789,0.6828,0.6871,0.6908,0.6946,0.6995,0.7059,0.708,0.714,0.7193,0.7278,0.7313,0.736,0.7361,0.7374,0.7377,0.7379,0.7378,0.7317,0.7371,0.7371,0.7371,0.7371,0.7371,0,0.669,0.6726,0.6774,0.6838,0.688,0.6893,0.6946,0.698,0.7031,0.7079,0.7126,0.7192,0.7248,0.7298,0.7356,0.7385,0.7395,0.7398,0.7397,0.7404,0.7374,0.736,0.7389,0.7389,0.7389,0.7389,0.7389,0.7389,0.6717,0.6775,0.68,0.6877,0.6912,0.697,0.6998,0.7038,0.7076,0.7148,0.7194,0.7226,0.7275,0.7337,0.7388,0.7402,0.7422,0.7423,0.7438,0.7409,0.7407,0.7405,0.7392,0.7427,0.7427,0.7465,0.7466,0.7466]},{"header":{"parameterUnit":"m.s-1","parameterCategory":1,"la1":30.2991,"la2":30.254,"lo1":-89.0895,"lo2":-89.0444,"dy":0.0017,"dx":0.0017,"nx":28,"ny":28,"refTime":"2024-06-23T09:00:00:Z","depth":0,"parameterNumber":3,"parameterNumberName":"V-component_of_WINDS"},"data":[0,0,0,0,0,0,0,0,0,0,0,0,0,0,0,0,0,0,0,0,0,0,0,0,0,0,0,0,0,0,0,0,0,0,0,0,0,0,0,0,0,0,0,0,0,0,0,0,0,0,0,0,0,0,0,0,0,0,3.0074,3.0074,0,3.0068,3.0068,3.0068,3.0083,3.0083,3.0084,3.0084,3.0076,3.0076,3.0075,0,0,0,0,0,0,0,0,0,0,0,0,0,3.0095,3.0095,3.0074,3.0074,3.0073,3.0068,3.0068,3.0068,3.0083,3.0083,3.0084,3.0085,3.0076,3.0076,3.0075,0,0,0,0,0,0,0,0,0,0,0,0,0,3.0087,3.0094,3.0074,3.008,3.0081,3.0068,3.0068,3.0068,3.0083,3.0084,3.0084,3.0085,3.0077,3.0076,3.0075,3.0054,0,0,3.0072,3.0071,0,0,0,0,0,0,0,0,3.0087,3.0086,3.008,3.008,3.0081,3.0077,3.0072,3.0063,3.0083,3.0082,3.0084,3.0085,3.0076,3.0075,3.0072,3.0054,3.0053,3.0072,3.0071,3.0071,3.007,0,0,0,0,0,0,0,3.0088,3.0087,3.0071,3.0079,3.008,3.0083,3.0083,3.0071,3.0075,3.0082,3.0083,3.0082,3.0076,3.0073,3.0072,3.0053,3.0072,3.0071,3.007,3.007,3.0016,3.0015,0,0,0,0,0,0,3.0088,3.0087,3.0071,3.0071,3.0086,3.0082,3.0082,3.0077,3.0075,3.0075,3.0082,3.0083,3.0074,3.0073,3.0072,3.0046,3.0071,3.007,3.0069,3.0016,3.0015,3.0014,0,0,0,0,0,0,3.0088,3.0087,3.0072,3.0079,3.0078,3.0081,3.0076,3.0077,3.0074,3.0075,3.0075,3.0078,3.0075,3.0073,3.0058,3.0046,3.0069,3.0068,3.0017,3.0016,3.0015,2.9995,0,0,0,0,0,0,3.0089,3.0087,3.0079,3.0079,3.0077,3.0059,3.0075,3.0076,3.0072,3.0074,3.0071,3.0072,3.0075,3.006,3.0057,3.0045,3.0067,3.0018,3.0017,3.0015,2.9997,2.9993,2.999,0,0,0,0,0,3.009,3.0074,3.0079,3.0077,3.0068,3.0058,3.0057,3.0062,3.0071,3.0063,3.0064,3.0072,3.0048,3.0058,3.0055,3.0043,3.0019,3.0017,3.0015,2.9998,2.9994,2.999,0,0,0,0,0,0,3.0072,3.0074,3.008,3.0064,3.0061,3.0061,3.0051,3.0058,3.0052,3.0053,3.006,3.0059,3.0042,3.0041,3.0052,3.0022,3.0035,3.0032,3.0023,3.0019,3.0016,3.0016,3.0067,0,0,0,0,0,3.0067,3.0059,3.0061,3.0046,3.0045,3.0048,3.0044,3.0048,3.0045,3.0044,3.0043,3.0039,3.0031,3.0025,3.0017,2.9997,2.9996,2.9987,2.9984,2.9981,2.9978,2.9966,2.9962,3.0008,3.0008,3.0008,0,0,3.0055,3.0055,3.005,3.0043,3.0041,3.0032,3.0047,3.0037,3.003,3.0042,3.0027,3.0027,3.0023,3.0004,2.9996,3.0003,2.9965,2.9979,2.9977,2.9975,2.9964,2.9959,2.9955,3.0007,3.0007,3.0007,0,0,3.0028,3.0028,3.0015,3.0013,3.0011,3.0013,3.001,3.0009,3.0009,2.9995,3.0003,2.9994,2.998,2.9976,2.9972,2.9943,2.995,2.9941,2.9923,2.9911,2.9907,2.9904,2.9892,2.9888,2.9938,2.9938,2.9938,0,3.0013,3.0001,3.0008,2.9997,2.9993,3.0004,2.9991,2.9988,2.9983,2.9979,2.9987,2.9968,2.9966,2.9946,2.9939,2.9936,2.9932,2.9941,2.9908,2.9904,2.9901,2.989,2.9886,2.9937,2.9937,2.9937,2.9938,0,2.9982,2.9973,2.9963,2.9958,2.9953,2.9941,2.9945,2.9939,2.9943,2.9944,2.9929,2.9927,2.9918,2.9914,2.9918,2.9894,2.9898,2.9907,2.992,2.9896,2.9885,2.9881,2.9935,2.9936,2.9936,2.9937,0,0,2.9944,2.9943,2.9939,2.9936,2.9934,2.9926,2.9914,2.9906,2.99,2.9896,2.9884,2.9872,2.9879,2.9875,2.9878,2.9868,2.9843,2.9877,2.9877,2.987,2.9814,2.9807,2.9802,2.9847,2.9847,2.9846,2.9814,0,2.9917,2.9896,2.9902,2.9881,2.9872,2.9882,2.9871,2.9868,2.9868,2.9859,2.986,2.985,2.9862,2.9859,2.9849,2.9848,2.9832,2.9851,2.9835,2.9835,2.9835,2.9797,2.9789,2.9759,2.981,2.9809,2.9809,0,2.9882,2.9877,2.9855,2.9853,2.9849,2.9839,2.9832,2.9824,2.982,2.9821,2.9816,2.9821,2.9807,2.9822,2.9802,2.9815,2.9809,2.9807,2.9806,2.9804,2.9819,2.9792,2.975,2.9745,2.9803,2.9803,2.9804,0,2.9854,2.9842,2.9827,2.9824,2.9822,2.9815,2.9813,2.981,2.9804,2.9797,2.9794,2.9785,2.978,2.9773,2.9775,2.9786,2.9754,2.9769,2.9753,2.9753,2.9745,2.9745,2.97,2.9743,2.9744,2.9744,2.9744,0,2.9822,2.9808,2.9814,2.9805,2.9789,2.9795,2.9779,2.9778,2.9775,2.9765,2.9773,2.9763,2.9768,2.9757,2.9759,2.9741,2.9739,2.9739,2.9739,2.9737,2.9737,2.9732,2.9734,2.9742,2.9743,2.9743,2.9743,0,2.9788,2.9792,2.9776,2.9775,2.9775,2.9763,2.9762,2.9752,2.9753,2.974,2.9737,2.9738,2.9727,2.9729,2.9716,2.9717,2.9694,2.9698,2.9696,2.9696,2.9679,2.968,2.9628,2.9621,2.9671,2.967,2.967,0,2.9767,2.9757,2.9755,2.9749,2.9747,2.9737,2.9732,2.9737,2.973,2.9724,2.9715,2.9704,2.9696,2.9676,2.9675,2.9665,2.9667,2.965,2.9666,2.9663,2.9665,2.9665,2.9663,2.9646,2.9646,2.9645,2.9645,0,2.9728,2.9731,2.9723,2.9715,2.9709,2.9703,2.9698,2.9692,2.9697,2.9689,2.9677,2.9671,2.9657,2.9645,2.9636,2.9633,2.9638,2.964,2.9635,2.9633,2.9631,2.963,2.9685,2.9641,2.9641,2.9641,2.9642,2.9642,2.9699,2.969,2.9686,2.9677,2.9674,2.9669,2.9659,2.9659,2.965,2.964,2.9644,2.963,2.9624,2.9612,2.9608,2.9596,2.9602,2.9596,2.9594,2.9592,2.9589,2.9634,2.9594,2.9594,2.9595,2.9595,2.9595,0,2.9659,2.9658,2.9649,2.9642,2.9634,2.9642,2.9636,2.9629,2.9617,2.9612,2.9603,2.9589,2.9578,2.9575,2.9564,2.9555,2.9557,2.9552,2.9552,2.955,2.9585,2.959,2.955,2.955,2.955,2.955,2.955,2.955,2.9638,2.9622,2.9623,2.9605,2.9603,2.9591,2.9587,2.9581,2.9577,2.9561,2.9552,2.9551,2.9546,2.9535,2.9524,2.9523,2.9518,2.9511,2.9511,2.9544,2.9548,2.9552,2.9556,2.951,2.951,2.9477,2.9477,2.9477]}]]